sat.trackr.live / text

‹ back to catalog

STARLINK-30242

NORAD 57739 · 2023-131H

PAYLOAD ACTIVE UNKNOWN

§ Identity

Operator
Country
US
Launch date
2023-09-01
Launch site
AFETR
Launch vehicle
Mass (kg)
RCS (m²)

Purposes: comms

External: N2YO · Heavens-Above · Gunter

§ Orbital elements

Epoch: 2026-05-25T04:48:25.285824Z

Period
94.27 min
Inclination
43.0018°
Eccentricity
0.0001396
Mean motion
15.27586882 rev/d
Perigee alt
482.1 km
Apogee alt
484.0 km
Semi-major
6,861.2 km
B*
2.8263e-4
RAAN
71.5594°
Arg perigee
260.9134°
Mean anomaly
99.1559°
Rev number
15,195

§ Raw data

STARLINK-302421 57739U 23131H   26145.20029266  .00007525  00000+0  28263-3 0  99982 57739  43.0018  71.5594 0001396 260.9134  99.1559 15.27586882151955

JSON: /api/v1/satellites/57739 · /tle

For live sub-satellite position, see the globe view (requires WebGL).

§ Visibility from observer

Set your observer location to see the next 7 days of passes ≥ 10°. The values pass through the URL so the page stays shareable.

No JS? Fill the form by hand. The geolocation button needs JavaScript.